Powrót do katalogu

KUIPER-00168

AktywnyŁącznośćLEO
NORAD 65781·PAYLOAD·🇺🇸 United States

Wystrzelony Sep 25, 2025 z Cape Canaveral Space Force Station

Loading…

Następne Przeloty (najbliższe 24 godziny)

TLE

ŚwieżeSource: CelesTrak SupGP

Epoka: Sep 14, 2026, 23:14 UTC

1 65781C 25217V   26257.96835648  .00002561  00000+0  33531-3 0  2573
2 65781  51.8993 271.1221 0000565  56.5882  31.6473 14.79921629    15

Śledź KUIPER-00168 w czasie rzeczywistym z AllMySat

Download on the App Store